Time,TemperatureF,DewpointF,PressureIn,WindDirection,WindDirectionDegrees,WindSpeedMPH,WindSpeedGustMPH,Humidity,HourlyPrecipIn,Conditions,Clouds,dailyrainin,SoftwareType,DateUTC
2013-03-24 00:00:00,49.9,12.0,30.26,WSW,252,0.0,1.0,22,0.00,,,0.00,weatherlink.com 1.10,2013-03-24 07:00:00,
2013-03-24 00:15:00,49.0,11.0,30.26,WSW,251,4.0,4.0,22,0.00,,,0.00,weatherlink.com 1.10,2013-03-24 07:15:00,
2013-03-24 00:30:00,49.9,12.0,30.26,West,260,0.0,2.0,22,0.00,,,0.00,weatherlink.com 1.10,2013-03-24 07:30:00,
2013-03-24 00:45:00,49.4,13.0,30.26,WSW,257,2.0,4.0,23,0.00,,,0.00,weatherlink.com 1.10,2013-03-24 07:45:00,
2013-03-24 01:00:00,49.4,11.0,30.27,WSW,246,3.0,5.0,21,0.00,,,0.00,weatherlink.com 1.10,2013-03-24 08:00:00,
2013-03-24 01:15:00,48.9,13.0,30.27,WSW,255,0.0,2.0,24,0.00,,,0.00,weatherlink.com 1.10,2013-03-24 08:15:00,
2013-03-24 01:30:00,48.2,13.0,30.27,WSW,255,3.0,3.0,24,0.00,,,0.00,weatherlink.com 1.10,2013-03-24 08:30:00,
2013-03-24 01:45:00,48.1,13.0,30.27,West,259,3.0,5.0,24,0.00,,,0.00,weatherlink.com 1.10,2013-03-24 08:45:00,
2013-03-24 02:00:00,47.7,12.0,30.27,WSW,254,1.0,4.0,24,0.00,,,0.00,weatherlink.com 1.10,2013-03-24 09:00:00,
2013-03-24 02:15:00,47.3,13.0,30.28,WSW,255,0.0,3.0,25,0.00,,,0.00,weatherlink.com 1.10,2013-03-24 09:15:00,
2013-03-24 02:30:00,46.7,13.0,30.28,WSW,254,0.0,2.0,26,0.00,,,0.00,weatherlink.com 1.10,2013-03-24 09:30:00,
2013-03-24 02:45:00,45.9,14.0,30.28,WSW,252,1.0,4.0,28,0.00,,,0.00,weatherlink.com 1.10,2013-03-24 09:45:00,
2013-03-24 03:00:00,45.7,15.0,30.27,WSW,250,2.0,5.0,29,0.00,,,0.00,weatherlink.com 1.10,2013-03-24 10:00:00,
2013-03-24 03:15:00,45.6,15.0,30.27,WSW,250,0.0,3.0,29,0.00,,,0.00,weatherlink.com 1.10,2013-03-24 10:15:00,
2013-03-24 03:30:00,45.1,14.0,30.28,WSW,251,0.0,3.0,29,0.00,,,0.00,weatherlink.com 1.10,2013-03-24 10:30:00,
2013-03-24 03:45:00,44.9,15.0,30.28,WSW,251,2.0,3.0,30,0.00,,,0.00,weatherlink.com 1.10,2013-03-24 10:45:00,
2013-03-24 04:00:00,45.1,14.0,30.28,WSW,248,1.0,3.0,29,0.00,,,0.00,weatherlink.com 1.10,2013-03-24 11:00:00,
2013-03-24 04:16:00,44.5,15.0,30.29,WSW,252,0.0,2.0,30,0.00,,,0.00,weatherlink.com 1.10,2013-03-24 11:16:00,
2013-03-24 04:31:00,44.7,14.0,30.29,WSW,252,0.0,3.0,29,0.00,,,0.00,weatherlink.com 1.10,2013-03-24 11:31:00,
2013-03-24 04:46:00,44.8,13.0,30.30,WSW,252,0.0,2.0,28,0.00,,,0.00,weatherlink.com 1.10,2013-03-24 11:46:00,
2013-03-24 05:01:00,44.8,15.0,30.29,WSW,252,0.0,1.0,30,0.00,,,0.00,weatherlink.com 1.10,2013-03-24 12:01:00,
2013-03-24 05:16:00,44.3,13.0,30.29,WSW,252,0.0,0.0,28,0.00,,,0.00,weatherlink.com 1.10,2013-03-24 12:16:00,
2013-03-24 05:31:00,44.4,12.0,30.30,WSW,252,0.0,1.0,27,0.00,,,0.00,weatherlink.com 1.10,2013-03-24 12:31:00,
2013-03-24 05:46:00,44.0,13.0,30.30,WSW,251,1.0,2.0,28,0.00,,,0.00,weatherlink.com 1.10,2013-03-24 12:46:00,
2013-03-24 07:16:00,45.0,13.0,30.31,WSW,253,0.0,1.0,27,0.00,,,0.00,weatherlink.com 1.10,2013-03-24 14:16:00,
2013-03-24 07:46:00,49.1,16.0,30.32,WSW,253,0.0,0.0,27,0.00,,,0.00,weatherlink.com 1.10,2013-03-24 14:46:00,
2013-03-24 08:01:00,49.5,16.0,30.32,WSW,253,0.0,0.0,26,0.00,,,0.00,weatherlink.com 1.10,2013-03-24 15:01:00,
2013-03-24 08:16:00,50.9,17.0,30.32,WSW,253,0.0,1.0,26,0.00,,,0.00,weatherlink.com 1.10,2013-03-24 15:16:00,
2013-03-24 08:46:00,54.1,12.0,30.32,NW,324,2.0,4.0,19,0.00,,,0.00,weatherlink.com 1.10,2013-03-24 15:46:00,
2013-03-24 09:31:00,56.2,13.0,30.32,NE,40,0.0,3.0,18,0.00,,,0.00,weatherlink.com 1.10,2013-03-24 16:31:00,
2013-03-24 09:46:00,56.9,14.0,30.32,NE,49,0.0,3.0,18,0.00,,,0.00,weatherlink.com 1.10,2013-03-24 16:46:00,
2013-03-24 10:01:00,57.9,13.0,30.32,NNE,21,0.0,3.0,17,0.00,,,0.00,weatherlink.com 1.10,2013-03-24 17:01:00,
2013-03-24 10:17:00,59.2,11.0,30.32,NE,44,0.0,3.0,15,0.00,,,0.00,weatherlink.com 1.10,2013-03-24 17:17:00,
2013-03-24 10:31:00,60.5,11.0,30.32,NNE,20,0.0,4.0,14,0.00,,,0.00,weatherlink.com 1.10,2013-03-24 17:31:00,
2013-03-24 10:46:00,62.0,10.0,30.31,North,9,2.0,4.0,13,0.00,,,0.00,weatherlink.com 1.10,2013-03-24 17:46:00,
2013-03-24 11:02:00,62.5,9.0,30.30,NNE,17,1.0,5.0,12,0.00,,,0.00,weatherlink.com 1.10,2013-03-24 18:02:00,
2013-03-24 11:17:00,63.0,9.0,30.30,NE,36,1.0,6.0,12,0.00,,,0.00,weatherlink.com 1.10,2013-03-24 18:17:00,
2013-03-24 11:32:00,64.4,11.0,30.29,NE,40,1.0,4.0,12,0.00,,,0.00,weatherlink.com 1.10,2013-03-24 18:32:00,
2013-03-24 11:47:00,64.8,9.0,30.29,ENE,61,0.0,2.0,11,0.00,,,0.00,weatherlink.com 1.10,2013-03-24 18:47:00,
2013-03-24 12:02:00,65.7,10.0,30.28,SSE,159,2.0,3.0,11,0.00,,,0.00,weatherlink.com 1.10,2013-03-24 19:02:00,
2013-03-24 12:17:00,66.3,8.0,30.27,NE,51,2.0,3.0,10,0.00,,,0.00,weatherlink.com 1.10,2013-03-24 19:17:00,
2013-03-24 12:32:00,66.8,8.0,30.27,ESE,102,2.0,7.0,10,0.00,,,0.00,weatherlink.com 1.10,2013-03-24 19:32:00,
2013-03-24 12:47:00,66.4,6.0,30.26,ENE,71,1.0,5.0,9,0.00,,,0.00,weatherlink.com 1.10,2013-03-24 19:47:00,
2013-03-24 13:17:00,68.6,5.0,30.24,NE,44,0.0,4.0,8,0.00,,,0.00,weatherlink.com 1.10,2013-03-24 20:17:00,
2013-03-24 13:32:00,69.2,5.0,30.23,WSW,254,3.0,4.0,8,0.00,,,0.00,weatherlink.com 1.10,2013-03-24 20:32:00,
2013-03-24 13:47:00,70.0,6.0,30.22,SSW,211,2.0,5.0,8,0.00,,,0.00,weatherlink.com 1.10,2013-03-24 20:47:00,
2013-03-24 14:02:00,70.7,6.0,30.21,ESE,116,0.0,7.0,8,0.00,,,0.00,weatherlink.com 1.10,2013-03-24 21:02:00,
2013-03-24 14:17:00,70.3,9.0,30.20,NE,53,1.0,5.0,9,0.00,,,0.00,weatherlink.com 1.10,2013-03-24 21:17:00,
2013-03-24 14:32:00,71.2,7.0,30.19,SSW,196,0.0,3.0,8,0.00,,,0.00,weatherlink.com 1.10,2013-03-24 21:32:00,
2013-03-24 14:47:00,70.7,6.0,30.18,ESE,108,0.0,5.0,8,0.00,,,0.00,weatherlink.com 1.10,2013-03-24 21:47:00,
2013-03-24 15:02:00,71.0,7.0,30.18,North,5,1.0,7.0,8,0.00,,,0.00,weatherlink.com 1.10,2013-03-24 22:02:00,
2013-03-24 15:17:00,71.4,9.0,30.17,NE,54,0.0,5.0,9,0.00,,,0.00,weatherlink.com 1.10,2013-03-24 22:17:00,
2013-03-24 15:32:00,72.1,10.0,30.17,WSW,238,0.0,3.0,9,0.00,,,0.00,weatherlink.com 1.10,2013-03-24 22:32:00,
2013-03-24 15:47:00,72.2,10.0,30.16,NE,44,1.0,5.0,9,0.00,,,0.00,weatherlink.com 1.10,2013-03-24 22:47:00,
2013-03-24 16:02:00,71.6,10.0,30.16,ENE,67,3.0,6.0,9,0.00,,,0.00,weatherlink.com 1.10,2013-03-24 23:02:00,
2013-03-24 16:17:00,71.4,9.0,30.15,ENE,60,0.0,2.0,9,0.00,,,0.00,weatherlink.com 1.10,2013-03-24 23:17:00,
2013-03-24 16:32:00,71.0,9.0,30.15,ENE,73,0.0,5.0,9,0.00,,,0.00,weatherlink.com 1.10,2013-03-24 23:32:00,
2013-03-24 16:47:00,71.8,10.0,30.14,SE,139,3.0,3.0,9,0.00,,,0.00,weatherlink.com 1.10,2013-03-24 23:47:00,
2013-03-24 17:02:00,71.8,10.0,30.13,ESE,111,1.0,4.0,9,0.00,,,0.00,weatherlink.com 1.10,2013-03-25 00:02:00,
2013-03-24 17:17:00,70.6,9.0,30.13,ESE,118,0.0,4.0,9,0.00,,,0.00,weatherlink.com 1.10,2013-03-25 00:17:00,
2013-03-24 17:32:00,69.7,13.0,30.12,East,101,1.0,4.0,11,0.00,,,0.00,weatherlink.com 1.10,2013-03-25 00:32:00,
2013-03-24 17:47:00,69.0,12.0,30.12,ENE,63,0.0,4.0,11,0.00,,,0.00,weatherlink.com 1.10,2013-03-25 00:47:00,
2013-03-24 18:03:00,68.8,12.0,30.12,East,101,2.0,5.0,11,0.00,,,0.00,weatherlink.com 1.10,2013-03-25 01:03:00,
2013-03-24 18:18:00,68.4,12.0,30.12,East,94,1.0,8.0,11,0.00,,,0.00,weatherlink.com 1.10,2013-03-25 01:18:00,
2013-03-24 18:33:00,68.0,11.0,30.12,ENE,61,2.0,6.0,11,0.00,,,0.00,weatherlink.com 1.10,2013-03-25 01:33:00,
2013-03-24 18:48:00,67.6,11.0,30.12,SE,140,1.0,7.0,11,0.00,,,0.00,weatherlink.com 1.10,2013-03-25 01:48:00,
2013-03-24 19:03:00,67.2,13.0,30.11,East,101,0.0,3.0,12,0.00,,,0.00,weatherlink.com 1.10,2013-03-25 02:03:00,
2013-03-24 19:18:00,66.5,12.0,30.11,ENE,65,0.0,2.0,12,0.00,,,0.00,weatherlink.com 1.10,2013-03-25 02:18:00,
2013-03-24 19:33:00,65.9,14.0,30.12,ENE,61,0.0,2.0,13,0.00,,,0.00,weatherlink.com 1.10,2013-03-25 02:33:00,
2013-03-24 19:48:00,64.7,14.0,30.12,ENE,61,0.0,0.0,14,0.00,,,0.00,weatherlink.com 1.10,2013-03-25 02:48:00,
2013-03-24 20:03:00,63.0,14.0,30.12,ENE,61,0.0,0.0,15,0.00,,,0.00,weatherlink.com 1.10,2013-03-25 03:03:00,
2013-03-24 20:18:00,61.4,16.0,30.13,ENE,61,0.0,0.0,17,0.00,,,0.00,weatherlink.com 1.10,2013-03-25 03:18:00,
2013-03-24 20:33:00,60.2,15.0,30.13,ENE,61,0.0,0.0,17,0.00,,,0.00,weatherlink.com 1.10,2013-03-25 03:33:00,
2013-03-24 20:48:00,60.5,17.0,30.14,ENE,61,0.0,0.0,18,0.00,,,0.00,weatherlink.com 1.10,2013-03-25 03:48:00,
2013-03-24 21:03:00,59.8,17.0,30.14,ENE,61,0.0,0.0,19,0.00,,,0.00,weatherlink.com 1.10,2013-03-25 04:03:00,
2013-03-24 21:18:00,59.1,18.0,30.14,ENE,61,0.0,2.0,20,0.00,,,0.00,weatherlink.com 1.10,2013-03-25 04:18:00,
2013-03-24 21:33:00,58.8,22.0,30.14,ENE,61,0.0,1.0,24,0.00,,,0.00,weatherlink.com 1.10,2013-03-25 04:33:00,
2013-03-24 21:48:00,58.6,19.0,30.15,ENE,61,0.0,2.0,21,0.00,,,0.00,weatherlink.com 1.10,2013-03-25 04:48:00,
2013-03-24 22:03:00,58.7,18.0,30.15,ENE,61,0.0,1.0,20,0.00,,,0.00,weatherlink.com 1.10,2013-03-25 05:03:00,
2013-03-24 22:18:00,59.6,17.0,30.15,West,266,1.0,3.0,19,0.00,,,0.00,weatherlink.com 1.10,2013-03-25 05:18:00,
2013-03-24 22:33:00,59.0,18.0,30.14,West,262,0.0,1.0,20,0.00,,,0.00,weatherlink.com 1.10,2013-03-25 05:33:00,
2013-03-24 22:48:00,59.0,17.0,30.15,WSW,242,1.0,3.0,19,0.00,,,0.00,weatherlink.com 1.10,2013-03-25 05:48:00,
2013-03-24 23:03:00,59.1,17.0,30.15,WSW,255,0.0,5.0,19,0.00,,,0.00,weatherlink.com 1.10,2013-03-25 06:03:00,
2013-03-24 23:18:00,58.4,17.0,30.15,WSW,247,0.0,2.0,20,0.00,,,0.00,weatherlink.com 1.10,2013-03-25 06:18:00,
2013-03-24 23:33:00,56.0,16.0,30.15,WSW,247,0.0,0.0,21,0.00,,,0.00,weatherlink.com 1.10,2013-03-25 06:33:00,
2013-03-24 23:48:00,54.1,18.0,30.16,WSW,247,0.0,0.0,24,0.00,,,0.00,weatherlink.com 1.10,2013-03-25 06:48:00,